Defiance, OH

10:01 PM EDT on August 28, 2016 (GMT -0400)
Defiance Memorial

Weather History for KDFI - August, 2012

Change the Weather History Date:

Monday, August 27, 2012

  Actual Average Record
Temperature  
Mean Temperature 78 °F -  
Max Temperature 86 °F 83 °F 101 °F (1948)
Min Temperature 69 °F 59 °F 46 °F (1968)
Cooling Degree Days 12    
Growing Degree Days 28 (Base 50)    
Moisture  
Dew Point 69 °F    
Average Humidity 85    
Maximum Humidity 96    
Minimum Humidity 49    
Precipitation  
Precipitation 0.45 in - - ()
Sea Level Pressure  
Sea Level Pressure 29.99 in    
Wind  
Wind Speed 5 mph (NE)    
Max Wind Speed 12 mph    
Max Gust Speed -    
Visibility 6 miles    
Events Rain    
Averages and records for this station are not official NWS values.
T = Trace of Precipitation, MM = Missing Value Source: NWS Daily Summary

Daily Weather History Graph

Daily Weather History Graph

Search for Another Location

Airport or City:

Trip Planner

Search our weather history database for the weather conditions in past years. The results will help you decide how hot, cold, wet, or windy it might be!

Date:

Astronomy

Aug. 27, 2012 Rise Set
Actual Time 6:59 AM EDT 8:17 PM EDT
Civil Twilight 6:30 AM EDT 8:46 PM EDT
Nautical Twilight 5:56 AM EDT 9:20 PM EDT
Astronomical Twilight 5:20 AM EDT 9:56 PM EDT
Moon 5:38 PM EDT (8/27) 2:40 AM EDT (8/27)
Length of Visible Light 14h 15m
Length of Day
13h 18m
Waxing Gibbous, 82% of the Moon is Illuminated
Aug 27
Waxing Gibbous
Aug 31
Full
Sep 8
Last Quarter
Sep 15
New
Sep 22
First Quarter

Hourly Weather History & Observations

Time (EDT) Temp. Heat Index Dew Point Humidity Pressure Visibility Wind Dir Wind Speed Gust Speed Precip Events Conditions
12:53 AM 75.0 °F - 69.1 °F 82% 30.02 in 7.0 mi North 3.5 mph - 0.00 in Rain Light Rain
1:53 AM 73.0 °F - 70.0 °F 90% 30.01 in 10.0 mi ESE 3.5 mph - 0.01 in Rain Light Rain
2:53 AM 72.0 °F - 70.0 °F 93% 30.00 in 9.0 mi Calm Calm - 0.00 in   Overcast
3:53 AM 72.0 °F - 70.0 °F 93% 29.99 in 7.0 mi NE 3.5 mph - 0.00 in   Mostly Cloudy
4:53 AM 72.0 °F - 70.0 °F 93% 29.99 in 7.0 mi Calm Calm - 0.00 in   Overcast
5:53 AM 71.1 °F - 69.1 °F 93% 29.99 in 5.0 mi Calm Calm - 0.06 in Rain Light Rain
6:53 AM 71.1 °F - 69.1 °F 93% 29.99 in 3.0 mi ESE 6.9 mph - 0.19 in Rain Rain
7:28 AM 71.6 °F - 69.8 °F 94% 30.01 in 3.0 mi SE 4.6 mph - 0.06 in Rain Light Rain
7:35 AM 71.6 °F - 69.8 °F 94% 30.01 in 3.0 mi ESE 4.6 mph - 0.07 in Rain Rain
7:47 AM 71.6 °F - 69.8 °F 94% 30.01 in 2.0 mi SE 3.5 mph - 0.10 in Rain Rain
7:48 AM 71.1 °F - 70.0 °F 96% 30.00 in 2.0 mi ESE 3.5 mph - 0.11 in Rain Rain
8:06 AM 71.6 °F - 69.8 °F 94% 30.01 in 2.5 mi SE 4.6 mph - 0.01 in Rain Light Rain
8:22 AM 71.6 °F - 69.8 °F 94% 30.01 in 3.0 mi ESE 6.9 mph - 0.01 in   Overcast
8:53 AM 71.1 °F - 69.1 °F 93% 29.99 in 2.0 mi ESE 6.9 mph - 0.02 in Rain Light Rain
9:07 AM 71.6 °F - 69.8 °F 94% 30.00 in 2.5 mi SE 6.9 mph - 0.00 in Rain Light Rain
9:34 AM 71.6 °F - 69.8 °F 94% 29.99 in 2.0 mi SE 5.8 mph - 0.00 in Rain Light Rain
9:42 AM 71.6 °F - 69.8 °F 94% 29.99 in 1.8 mi SSE 4.6 mph - 0.01 in Rain Light Rain
9:53 AM 71.1 °F - 70.0 °F 96% 29.98 in 1.5 mi SSE 4.6 mph - 0.03 in Rain Light Rain
10:14 AM 71.6 °F - 69.8 °F 94% 29.99 in 2.5 mi South 9.2 mph - 0.01 in Rain Light Rain
10:25 AM 71.6 °F - 69.8 °F 94% 29.99 in 3.0 mi South 8.1 mph - 0.01 in Rain Light Rain
10:33 AM 71.6 °F - 69.8 °F 94% 29.99 in 2.5 mi South 8.1 mph - 0.01 in Rain Light Rain
10:42 AM 71.6 °F - 69.8 °F 94% 29.99 in 4.0 mi South 8.1 mph - 0.02 in Rain Light Rain
10:53 AM 72.0 °F - 70.0 °F 93% 29.97 in 3.0 mi SSW 9.2 mph - 0.02 in   Overcast
11:10 AM 73.4 °F - 69.8 °F 88% 29.98 in 2.5 mi SSW 8.1 mph - N/A   Overcast
11:17 AM 73.4 °F - 69.8 °F 88% 29.98 in 3.0 mi SSW 8.1 mph - 0.00 in Rain Light Rain
11:53 AM 73.0 °F - 71.1 °F 93% 29.98 in 2.0 mi WNW 4.6 mph - 0.00 in Rain Light Rain
12:00 PM 71.6 °F - 69.8 °F 94% 30.00 in 2.5 mi NNW 9.2 mph - 0.01 in Rain Light Rain
12:07 PM 71.6 °F - 69.8 °F 94% 30.00 in 3.0 mi NNW 6.9 mph - 0.01 in Rain Light Rain
12:19 PM 73.4 °F - 71.6 °F 94% 30.00 in 10.0 mi North 9.2 mph - 0.01 in   Overcast
12:26 PM 73.4 °F - 69.8 °F 88% 30.00 in 10.0 mi North 9.2 mph - 0.01 in   Overcast
12:33 PM 73.4 °F - 71.6 °F 94% 30.00 in 10.0 mi NNW 9.2 mph - 0.01 in   Overcast
12:53 PM 73.9 °F - 70.0 °F 87% 29.99 in 10.0 mi North 9.2 mph - 0.01 in   Overcast
1:09 PM 75.2 °F - 69.8 °F 83% 29.99 in 10.0 mi North 9.2 mph - N/A   Overcast
1:37 PM 77.0 °F - 69.8 °F 78% 29.99 in 10.0 mi North 9.2 mph - N/A   Mostly Cloudy
2:21 PM 80.6 °F 83.9 °F 69.8 °F 70% 30.00 in 10.0 mi North 10.4 mph - N/A   Mostly Cloudy
2:53 PM 82.0 °F 85.9 °F 70.0 °F 67% 29.98 in 10.0 mi NNW 11.5 mph - N/A   Scattered Clouds
3:53 PM 82.9 °F 85.8 °F 68.0 °F 60% 29.96 in 10.0 mi NNW 6.9 mph - N/A   Scattered Clouds
4:53 PM 84.9 °F 87.6 °F 66.9 °F 55% 29.95 in 10.0 mi NNW 8.1 mph - N/A   Scattered Clouds
5:53 PM 84.0 °F 86.3 °F 66.0 °F 55% 29.95 in 10.0 mi NW 9.2 mph - N/A   Scattered Clouds
6:53 PM 84.0 °F 84.9 °F 63.0 °F 49% 29.96 in 10.0 mi NNW 8.1 mph - N/A   Clear
7:53 PM 79.0 °F - 64.0 °F 60% 29.96 in 10.0 mi NNW 4.6 mph - N/A   Clear
8:53 PM 75.0 °F - 64.0 °F 69% 29.98 in 10.0 mi Calm Calm - N/A   Clear
9:53 PM 73.9 °F - 63.0 °F 68% 30.00 in 10.0 mi Calm Calm - N/A   Clear
10:53 PM 72.0 °F - 62.1 °F 71% 30.02 in 10.0 mi Variable 3.5 mph - N/A   Clear
11:53 PM 69.1 °F - 60.1 °F 73% 30.03 in 10.0 mi NW 5.8 mph - N/A   Clear